Location: Ch�teau-Arnoux
(44.0814°N, 6.0027°E)
Time: 00:25:00
(UTC+00:00)

Cosmos 1825 - Pass Details

Date: 15 November 2019
Orbit: 504 x 508 km, 82.5° (Epoch: 11 December)

Event Time Altitude Azimuth Distance (km) Brightness Sun altitude
Rises 04:51:02 0° 165° (SSE) 2,591 6.1 -17.9°
Reaches altitude 10° 04:53:17 10° 155° (SSE) 1,712 5.3 -17.5°
Maximum altitude 04:56:38 31° 91° (E) 901 4.1 -16.9°
Drops below altitude 10° 05:00:00 10° 28° (NNE) 1,726 5.1 -16.3°
Sets 05:02:17 0° 18° (NNE) 2,617 5.9 -15.9°
